OBJECT BE (43810 NORAD) Tracking and Keplerian Element Data

This shows tracking and keplerian element data for the satellite.

Feedback or suggestion? Click here.




ElementValue
Catalog43810
NameOBJECT BE
Epoch Orbit1362
Epoch Day66.9705578
Epoch Year2019
RAAN140.0819
Inclination97.7453
Eccentricity0.0013371
Argument of Perigee312.1005
Mean Anonmoly47.9078
Mean Motion14.95335595
Decay Rate-1.47E-06
L11 43810U 18099BE 19066.97055780 -.00000147 00000-0 -80017-5 0 9991
L22 43810 97.7453 140.0819 0013371 312.1005 47.9078 14.95335595 13629

Live tracking and technical data element details for OBJECT BE (NORAD 43810). OBJECT BE can be tracked NOW for your location showing map with azimuth and elevation plus other details from your city location.

Track the satellite on the map from your city or location and see movement details for azimuth, elevation, latitude, longitude, range, height, and movement on the map or in text.







IsCatalogInMostPopularTable: catalog: 43810, numindb: 67
Update: records affected: 1



GetName: 43810 OBJECT BE

Hit Count: updated at: Thu, 23 May 2019 15:56:35 GMT